LFBPLFMP

Guest
Details From LFBP - Pau Pyrenees
To LFMP - Rivesaltes
Flight Number -
Tags generated
Created
Modified
Stats Distance 150 nm / 277 km
Max Altitude 2,100 ft / 640 m
Waypoints 3
Social Downloads 2
Likes 0
Share VATSIM

Download

Looking for another format? Having issues loading an existing format? Contact us
Advertisement - Login to hide

Notes

Basic altitude profile: - Ascent Rate: 80ft/min - Ascent Speed: 70kts - Cruise Altitude: 10000ft - Cruise Speed: 100kts - Descent Rate: 80ft/min - Descent Speed: 80kts

Route

LFBP GAI57 LFMP

ID Type Via Altitude Latitude Longitude Leg Dist Tot Dist Heading (true) Name
O LFBP APT - 0 ft / 0 m 43.38108˚ -0.42075˚ - 0 nm - Pau Pyrenees
GAI57 FIX - 2,100 ft / 640 m 43.00000˚ 1.93611˚ 105 nm 105 nm 102° / 103° -
O LFMP APT - 0 ft / 0 m 42.74049˚ 2.87059˚ 43 nm 149 nm 110° / 111° Rivesaltes

Altitude Profile

Advertisement - Login to hide

LFBP

Details ICAO LFBP (PUF)
Name Pau Pyrenees
Region France
Timezone Europe/Paris (UTC+2.0)
Stats Elevation 616 ft / 188 m (AMSL)
Location 43.381078° -0.420752°
Runways 1
Magnetic Variation 0.147° E

METAR

LFBP 230530Z AUTO VRB02KT 0500 0400 R31/P2000 R13/0600N FG VV/// 14/13 Q1017 BECMG CAVOK

Decode

TAF

TAF LFBP 230500Z 2306/2406 VRB03KT 2500 BR OVC002 BECMG 2307/2309 08005KT CAVOK TEMPO 2318/2320 SHRA BKN040TCU PROB30 TEMPO 2318/2320 4000 TSRA BKN040CB

Decode

Departure Runways

ID Width Length Bearing (true) Bearing (mag) Surface Threshold Offset Overrun Length
13 148 ft / 45 m 8,191 ft / 2,497 m 125.89° 125.74° Asphalt 0 ft / 0 m 0 ft / 0 m
31 148 ft / 45 m 8,191 ft / 2,497 m 305.90° 305.75° Asphalt 0 ft / 0 m 0 ft / 0 m

LFMP

Details ICAO LFMP (PGF)
Name Rivesaltes
Region France
Timezone Europe/Paris (UTC+2.0)
Stats Elevation 143 ft / 44 m (AMSL)
Location 42.740488° 2.870594°
Runways 2
Magnetic Variation 1.041° E

METAR

LFMP 230530Z AUTO 24003KT 9999 FEW100 BKN230 16/12 Q1016 NOSIG

Decode

TAF

TAF LFMP 230200Z 2303/2403 25004KT 9999 FEW040 BECMG 2306/2308 09007KT TEMPO 2311/2316 FEW050CB BKN210 BECMG 2318/2320 02005KT

Decode

Destination Runways

ID Width Length Bearing (true) Bearing (mag) Surface Threshold Offset Overrun Length
13 66 ft / 20 m 4,231 ft / 1,290 m 127.54° 126.50° Asphalt 492 ft / 150 m 0 ft / 0 m
15 148 ft / 45 m 8,189 ft / 2,496 m 148.38° 147.34° Asphalt 0 ft / 0 m 230 ft / 70 m
31 66 ft / 20 m 4,231 ft / 1,290 m 307.55° 306.51° Asphalt 1,148 ft / 350 m 0 ft / 0 m
33 148 ft / 45 m 8,189 ft / 2,496 m 328.39° 327.35° Asphalt 558 ft / 170 m 230 ft / 70 m

Approach Navaids

Runway Type Ident Frequency Range Bearing (true) Bearing (mag) Slope Elevation
33 Localiser PL 111.75 MHz 18 nm / 33 km 328.30° 327.26° - 124 ft / 38 m (AMSL)
33 Glidescope PL 111.75 MHz 10 nm / 19 km 328.38° 327.34° 3.00° 124 ft / 38 m (AMSL)
33 DME PL 111.75 MHz 18 nm / 33 km - - - 183 ft / 56 m (AMSL)

Popular Alternatives